Time,TemperatureF,DewpointF,PressureIn,WindDirection,WindDirectionDegrees,WindSpeedMPH,WindSpeedGustMPH,Humidity,HourlyPrecipIn,Conditions,Clouds,dailyrainin,SoftwareType,DateUTC
2013-03-29 00:12:00,34.8,22.0,30.00,South,182,6.0,-999.0,60,-99.99,,,0.00,weatherlink.com 1.10,2013-03-29 06:12:00,
2013-03-29 00:27:00,33.3,24.0,30.00,South,190,11.0,-999.0,69,-99.99,,,0.00,weatherlink.com 1.10,2013-03-29 06:27:00,
2013-03-29 00:43:00,33.9,24.0,30.00,SSW,202,6.0,-999.0,66,-99.99,,,0.00,weatherlink.com 1.10,2013-03-29 06:43:00,
2013-03-29 00:58:00,34.1,23.0,30.00,SSW,207,5.0,-999.0,65,-99.99,,,0.00,weatherlink.com 1.10,2013-03-29 06:58:00,
2013-03-29 01:13:00,33.7,23.0,29.99,SW,227,11.0,-999.0,66,-99.99,,,0.00,weatherlink.com 1.10,2013-03-29 07:13:00,
2013-03-29 01:28:00,32.3,24.0,30.00,SSW,198,5.0,-999.0,72,-99.99,,,0.00,weatherlink.com 1.10,2013-03-29 07:28:00,
2013-03-29 01:43:00,31.6,25.0,30.00,South,169,12.0,-999.0,75,-99.99,,,0.00,weatherlink.com 1.10,2013-03-29 07:43:00,
2013-03-29 01:59:00,31.7,24.0,30.00,SSE,165,11.0,-999.0,74,-99.99,,,0.00,weatherlink.com 1.10,2013-03-29 07:59:00,
2013-03-29 02:13:00,32.4,24.0,30.00,SSE,167,9.0,-999.0,70,-99.99,,,0.00,weatherlink.com 1.10,2013-03-29 08:13:00,
2013-03-29 02:29:00,33.0,23.0,30.00,South,184,7.0,-999.0,67,-99.99,,,0.00,weatherlink.com 1.10,2013-03-29 08:29:00,
2013-03-29 02:44:00,34.8,22.0,30.00,South,191,7.0,-999.0,60,-99.99,,,0.00,weatherlink.com 1.10,2013-03-29 08:44:00,
2013-03-29 02:59:00,33.8,23.0,30.00,WSW,242,6.0,-999.0,64,-99.99,,,0.00,weatherlink.com 1.10,2013-03-29 08:59:00,
2013-03-29 03:14:00,31.8,23.0,30.00,West,271,8.0,-999.0,70,-99.99,,,0.00,weatherlink.com 1.10,2013-03-29 09:14:00,
2013-03-29 03:30:00,31.2,23.0,29.99,WSW,237,9.0,-999.0,72,-99.99,,,0.00,weatherlink.com 1.10,2013-03-29 09:30:00,
2013-03-29 03:44:00,31.8,23.0,29.98,SSW,207,9.0,-999.0,71,-99.99,,,0.00,weatherlink.com 1.10,2013-03-29 09:44:00,
2013-03-29 03:59:00,32.7,23.0,29.98,SSW,207,8.0,-999.0,68,-99.99,,,0.00,weatherlink.com 1.10,2013-03-29 09:59:00,
2013-03-29 04:16:00,32.2,23.0,29.97,South,190,11.0,-999.0,70,-99.99,,,0.00,weatherlink.com 1.10,2013-03-29 10:16:00,
2013-03-29 04:30:00,32.1,23.0,29.97,South,184,11.0,-999.0,69,-99.99,,,0.00,weatherlink.com 1.10,2013-03-29 10:30:00,
2013-03-29 04:45:00,32.1,23.0,29.97,South,179,13.0,-999.0,68,-99.99,,,0.00,weatherlink.com 1.10,2013-03-29 10:45:00,
2013-03-29 05:00:00,32.0,22.0,29.97,SSW,195,17.0,-999.0,67,-99.99,,,0.00,weatherlink.com 1.10,2013-03-29 11:00:00,
2013-03-29 05:15:00,30.6,22.0,29.97,SSW,194,13.0,-999.0,71,-99.99,,,0.00,weatherlink.com 1.10,2013-03-29 11:15:00,
2013-03-29 05:31:00,31.5,22.0,29.98,SSW,210,17.0,-999.0,67,-99.99,,,0.00,weatherlink.com 1.10,2013-03-29 11:31:00,
2013-03-29 05:46:00,31.5,22.0,29.97,SSW,213,9.0,-999.0,68,-99.99,,,0.00,weatherlink.com 1.10,2013-03-29 11:46:00,
2013-03-29 06:01:00,31.2,22.0,29.97,SW,224,12.0,-999.0,69,-99.99,,,0.00,weatherlink.com 1.10,2013-03-29 12:01:00,
2013-03-29 06:31:00,30.4,22.0,29.98,SSW,206,10.0,-999.0,71,-99.99,,,0.00,weatherlink.com 1.10,2013-03-29 12:31:00,
2013-03-29 06:46:00,29.8,22.0,29.98,SW,221,9.0,-999.0,73,-99.99,,,0.00,weatherlink.com 1.10,2013-03-29 12:46:00,
2013-03-29 07:02:00,29.1,22.0,29.99,WSW,243,8.0,-999.0,75,-99.99,,,0.00,weatherlink.com 1.10,2013-03-29 13:02:00,
2013-03-29 07:17:00,28.5,23.0,29.99,SSW,207,12.0,-999.0,79,-99.99,,,0.00,weatherlink.com 1.10,2013-03-29 13:17:00,
2013-03-29 07:32:00,28.9,23.0,30.00,SW,230,11.0,-999.0,80,-99.99,,,0.00,weatherlink.com 1.10,2013-03-29 13:32:00,
2013-03-29 07:47:00,29.2,23.0,30.00,SSW,203,14.0,-999.0,79,-99.99,,,0.00,weatherlink.com 1.10,2013-03-29 13:47:00,
2013-03-29 08:02:00,29.6,23.0,30.00,SSW,207,16.0,-999.0,77,-99.99,,,0.00,weatherlink.com 1.10,2013-03-29 14:02:00,
2013-03-29 08:17:00,29.9,24.0,29.99,SSW,194,10.0,-999.0,77,-99.99,,,0.00,weatherlink.com 1.10,2013-03-29 14:17:00,
2013-03-29 08:33:00,30.6,24.0,30.00,WSW,244,14.0,-999.0,75,-99.99,,,0.00,weatherlink.com 1.10,2013-03-29 14:33:00,
2013-03-29 08:48:00,31.9,24.0,30.00,SW,225,7.0,-999.0,72,-99.99,,,0.00,weatherlink.com 1.10,2013-03-29 14:48:00,
2013-03-29 09:03:00,33.2,24.0,29.99,SSW,202,13.0,-999.0,69,-99.99,,,0.00,weatherlink.com 1.10,2013-03-29 15:03:00,
2013-03-29 09:18:00,34.1,24.0,29.99,SW,225,11.0,-999.0,67,-99.99,,,0.00,weatherlink.com 1.10,2013-03-29 15:18:00,
2013-03-29 09:48:00,35.9,25.0,29.99,SSW,204,10.0,-999.0,64,-99.99,,,0.00,weatherlink.com 1.10,2013-03-29 15:48:00,
2013-03-29 10:04:00,36.7,25.0,29.99,NW,311,10.0,-999.0,62,-99.99,,,0.00,weatherlink.com 1.10,2013-03-29 16:04:00,
2013-03-29 10:19:00,36.8,25.0,29.99,SW,219,12.0,-999.0,62,-99.99,,,0.00,weatherlink.com 1.10,2013-03-29 16:19:00,
2013-03-29 10:34:00,37.2,24.0,29.99,NW,306,12.0,-999.0,60,-99.99,,,0.00,weatherlink.com 1.10,2013-03-29 16:34:00,
2013-03-29 10:49:00,37.9,24.0,30.00,SW,223,11.0,-999.0,58,-99.99,,,0.00,weatherlink.com 1.10,2013-03-29 16:49:00,
2013-03-29 11:04:00,38.0,24.0,30.00,WSW,245,8.0,-999.0,57,-99.99,,,0.00,weatherlink.com 1.10,2013-03-29 17:04:00,
2013-03-29 11:19:00,37.2,23.0,30.00,West,281,9.0,-999.0,58,-99.99,,,0.00,weatherlink.com 1.10,2013-03-29 17:19:00,
2013-03-29 11:34:00,37.4,25.0,30.00,SW,215,12.0,-999.0,61,-99.99,,,0.00,weatherlink.com 1.10,2013-03-29 17:34:00,
2013-03-29 11:50:00,36.4,24.0,30.00,WSW,256,15.0,-999.0,61,-99.99,,,0.00,weatherlink.com 1.10,2013-03-29 17:50:00,
2013-03-29 12:05:00,36.9,24.0,29.99,SW,236,17.0,-999.0,59,-99.99,,,0.00,weatherlink.com 1.10,2013-03-29 18:05:00,
2013-03-29 12:21:00,39.0,23.0,29.99,West,264,18.0,-999.0,54,-99.99,,,0.00,weatherlink.com 1.10,2013-03-29 18:21:00,
2013-03-29 12:35:00,38.2,23.0,29.99,West,259,7.0,-999.0,55,-99.99,,,0.00,weatherlink.com 1.10,2013-03-29 18:35:00,
2013-03-29 12:50:00,39.6,23.0,29.99,WSW,246,14.0,-999.0,51,-99.99,,,0.00,weatherlink.com 1.10,2013-03-29 18:50:00,
2013-03-29 13:05:00,36.0,27.0,29.99,NNW,327,11.0,-999.0,70,-99.99,,,0.00,weatherlink.com 1.10,2013-03-29 19:05:00,
2013-03-29 13:36:00,34.4,29.0,29.98,West,277,6.0,-999.0,80,-99.99,,,0.00,weatherlink.com 1.10,2013-03-29 19:36:00,
2013-03-29 14:06:00,37.9,27.0,29.98,NW,321,8.0,-999.0,66,-99.99,,,0.00,weatherlink.com 1.10,2013-03-29 20:06:00,
2013-03-29 14:22:00,35.4,28.0,29.97,West,266,10.0,-999.0,74,-99.99,,,0.00,weatherlink.com 1.10,2013-03-29 20:22:00,
2013-03-29 14:37:00,34.6,27.0,29.97,West,268,6.0,-999.0,73,-99.99,,,0.00,weatherlink.com 1.10,2013-03-29 20:37:00,
2013-03-29 14:52:00,37.8,28.0,29.97,WSW,244,10.0,-999.0,68,-99.99,,,0.00,weatherlink.com 1.10,2013-03-29 20:52:00,
2013-03-29 15:07:00,36.5,26.0,29.97,West,278,12.0,-999.0,67,-99.99,,,0.00,weatherlink.com 1.10,2013-03-29 21:07:00,
2013-03-29 15:23:00,30.9,28.0,29.98,WSW,258,8.0,-999.0,90,-99.99,,,0.00,weatherlink.com 1.10,2013-03-29 21:23:00,
2013-03-29 15:37:00,34.5,31.0,29.97,SW,229,13.0,-999.0,87,-99.99,,,0.00,weatherlink.com 1.10,2013-03-29 21:37:00,
2013-03-29 15:52:00,37.3,31.0,29.98,WSW,248,13.0,-999.0,78,-99.99,,,0.00,weatherlink.com 1.10,2013-03-29 21:52:00,
2013-03-29 16:08:00,40.5,27.0,29.98,WSW,248,15.0,-999.0,60,-99.99,,,0.00,weatherlink.com 1.10,2013-03-29 22:08:00,
2013-03-29 16:23:00,40.4,25.0,29.98,West,276,5.0,-999.0,54,-99.99,,,0.00,weatherlink.com 1.10,2013-03-29 22:23:00,
2013-03-29 16:38:00,40.0,26.0,29.98,WNW,288,6.0,-999.0,57,-99.99,,,0.00,weatherlink.com 1.10,2013-03-29 22:38:00,
2013-03-29 16:53:00,40.7,27.0,29.97,WSW,245,10.0,-999.0,59,-99.99,,,0.00,weatherlink.com 1.10,2013-03-29 22:53:00,
2013-03-29 17:08:00,39.0,25.0,29.98,West,279,4.0,-999.0,58,-99.99,,,0.00,weatherlink.com 1.10,2013-03-29 23:08:00,
2013-03-29 17:24:00,37.5,27.0,29.98,West,277,9.0,-999.0,66,-99.99,,,0.00,weatherlink.com 1.10,2013-03-29 23:24:00,
2013-03-29 17:39:00,39.5,27.0,29.98,WSW,238,11.0,-999.0,61,-99.99,,,0.00,weatherlink.com 1.10,2013-03-29 23:39:00,
2013-03-29 17:55:00,40.5,24.0,29.98,WSW,244,13.0,-999.0,52,-99.99,,,0.00,weatherlink.com 1.10,2013-03-29 23:55:00,
2013-03-29 18:09:00,38.6,23.0,29.99,WSW,240,8.0,-999.0,54,-99.99,,,0.00,weatherlink.com 1.10,2013-03-30 00:09:00,
2013-03-29 18:25:00,36.6,25.0,29.99,SE,136,17.0,-999.0,62,-99.99,,,0.00,weatherlink.com 1.10,2013-03-30 00:25:00,
2013-03-29 18:39:00,36.2,25.0,30.00,WNW,294,12.0,-999.0,64,-99.99,,,0.00,weatherlink.com 1.10,2013-03-30 00:39:00,
2013-03-29 18:55:00,35.0,27.0,30.00,SSW,213,13.0,-999.0,73,-99.99,,,0.00,weatherlink.com 1.10,2013-03-30 00:55:00,
2013-03-29 19:10:00,34.1,27.0,30.00,SSW,213,8.0,-999.0,75,-99.99,,,0.00,weatherlink.com 1.10,2013-03-30 01:10:00,
2013-03-29 19:25:00,34.5,26.0,30.00,SW,226,12.0,-999.0,72,-99.99,,,0.00,weatherlink.com 1.10,2013-03-30 01:25:00,
2013-03-29 19:40:00,34.3,26.0,30.00,SSW,209,10.0,-999.0,72,-99.99,,,0.00,weatherlink.com 1.10,2013-03-30 01:40:00,
2013-03-29 19:56:00,33.7,26.0,30.00,WSW,245,11.0,-999.0,73,-99.99,,,0.00,weatherlink.com 1.10,2013-03-30 01:56:00,
2013-03-29 20:10:00,33.4,26.0,30.01,SW,228,12.0,-999.0,75,-99.99,,,0.00,weatherlink.com 1.10,2013-03-30 02:10:00,
2013-03-29 20:26:00,33.2,27.0,30.02,West,264,14.0,-999.0,77,-99.99,,,0.00,weatherlink.com 1.10,2013-03-30 02:26:00,
2013-03-29 20:41:00,33.2,27.0,30.02,West,266,8.0,-999.0,77,-99.99,,,0.00,weatherlink.com 1.10,2013-03-30 02:41:00,
2013-03-29 20:56:00,33.2,27.0,30.02,SW,223,10.0,-999.0,77,-99.99,,,0.00,weatherlink.com 1.10,2013-03-30 02:56:00,
2013-03-29 21:11:00,33.3,27.0,30.03,SW,234,11.0,-999.0,78,-99.99,,,0.00,weatherlink.com 1.10,2013-03-30 03:11:00,
2013-03-29 21:26:00,33.2,27.0,30.02,SW,236,17.0,-999.0,77,-99.99,,,0.00,weatherlink.com 1.10,2013-03-30 03:26:00,
2013-03-29 21:42:00,32.6,26.0,30.03,West,273,10.0,-999.0,78,-99.99,,,0.00,weatherlink.com 1.10,2013-03-30 03:42:00,
2013-03-29 21:57:00,32.2,26.0,30.03,West,267,8.0,-999.0,78,-99.99,,,0.00,weatherlink.com 1.10,2013-03-30 03:57:00,
2013-03-29 22:12:00,31.6,25.0,30.02,West,277,12.0,-999.0,78,-99.99,,,0.00,weatherlink.com 1.10,2013-03-30 04:12:00,
2013-03-29 22:27:00,31.4,25.0,30.02,West,270,12.0,-999.0,77,-99.99,,,0.00,weatherlink.com 1.10,2013-03-30 04:27:00,
2013-03-29 22:42:00,31.7,24.0,30.02,NW,306,10.0,-999.0,74,-99.99,,,0.00,weatherlink.com 1.10,2013-03-30 04:42:00,
2013-03-29 22:57:00,31.4,24.0,30.02,West,273,14.0,-999.0,73,-99.99,,,0.00,weatherlink.com 1.10,2013-03-30 04:57:00,
2013-03-29 23:13:00,31.6,23.0,30.02,WNW,287,17.0,-999.0,71,-99.99,,,0.00,weatherlink.com 1.10,2013-03-30 05:13:00,
2013-03-29 23:28:00,31.3,23.0,30.04,WNW,282,7.0,-999.0,71,-99.99,,,0.00,weatherlink.com 1.10,2013-03-30 05:28:00,
2013-03-29 23:43:00,31.4,23.0,30.04,WNW,290,9.0,-999.0,70,-99.99,,,0.00,weatherlink.com 1.10,2013-03-30 05:43:00,
2013-03-29 23:58:00,31.2,23.0,30.04,West,280,12.0,-999.0,71,-99.99,,,0.00,weatherlink.com 1.10,2013-03-30 05:58:00,